OTP-2

Last updated on Mon Sep 21 2026 00:03:15 GMT+0000 (Coordinated Universal Time)

1 63235U 25052AB 26263.26621893 .00005132 00000+0 20779-3 0 9997 2 63235 97.3716 154.2807 0006048 170.0295 190.1064 15.25108245 84357
UTC large
Height (km)
Speed (km/s)
/
Latitude / Longitude
Inclination (degrees)
Orbital Period (minutes)
Azimuth
Elevation
Range (km)
Doppler Factor

Next 0 passes for location: London (51.5072 / 0.1276)

No passes found over London.
OTP-2